Regional Weather Roundup
Issued by NWS

Home | Current Version | Previous Version | Graphics & Text | Print | Product List | Glossary On
Versions: 1 2 3 4 5 6 7 8 9 10 11 12 13 14 15 16 17 18 19 20 21 22 23 24 25 26 27 28 29 30 31 32 33 34 35 36 37 38 39 40 41 42 43 44 45 46 47 48 49 50
000
ASUS43 KLMK 300410
RWRKY
KENTUCKY REGIONAL WEATHER ROUNDUP
NATIONAL WEATHER SERVICE LOUISVILLE KY
1100 PM EST THU JAN 29 2015

NOTE "FAIR" INDICATES FEW OR NO CLOUDS BELOW 12,000 FEET
WITH NO SIGNIFICANT WEATHER AND/OR OBSTRUCTIONS TO VISIBILITY.

KYZ001>023-026-027-061>063-070>075-300500-
WESTERN AND SOUTH CENTRAL KENTUCKY

CITY           SKY/WX    TMP DP  RH WIND       PRES   REMARKS
PADUCAH        CLOUDY    41  30  65 N18G24    30.37R
HENDERSON      CLOUDY    37  28  70 NW16      30.34S WCI  28
OWENSBORO      CLOUDY    37  33  85 NW12      30.33R WCI  29
HOPKINSVILLE   CLOUDY    37  34  87 NW5       30.34R WCI  34
BOWLING GREEN  LGT RAIN  37  33  85 NW8       30.32R FOG     WCI  31
GLASGOW        DRIZZLE   37  32  82 NW5       30.29R WCI  33
$$

KYZ024-025-028>034-038-045-046-053-300500-
NORTH CENTRAL KENTUCKY

CITY           SKY/WX    TMP DP  RH WIND       PRES   REMARKS
LOUISVILLE/SDF DRIZZLE   36  30  79 NW10      30.27R WCI  28
LOUISVILLE/LOU CLOUDY    36  29  75 NW14G21   30.27R WCI  27
FORT KNOX      CLOUDY    36  30  80 W9        30.26R WCI  29
$$

KYZ035>037-039>044-047>052-055>060-089>105-300500-
NORTHEAST KENTUCKY

CITY           SKY/WX    TMP DP  RH WIND       PRES   REMARKS
LEXINGTON      CLOUDY    33  31  92 NW9       30.22R FOG     WCI  25
COVINGTON      CLOUDY    34  29  82 NW13      30.18R WCI  25
FRANKFORT      CLOUDY    33  30  88 NW8       30.22R WCI  26
$$

KYZ054-064>069-076>088-106>120-300500-
SOUTHEAST KENTUCKY

CITY           SKY/WX    TMP DP  RH WIND       PRES   REMARKS
JACKSON        CLOUDY    35  29  78 W12G20    30.15R WCI  27
LONDON         CLOUDY    38  29  70 NW13      30.19R WCI  30
SOMERSET       CLOUDY    36  30  80 NW12      30.25R WCI  27
MIDDLESBORO    CLOUDY    38  33  80 NW10G21   30.18R WCI  31
MONTICELLO     CLOUDY    37  31  79 NW16G23   30.27R WCI  27
$$



USA.gov is the U.S. government's official web portal to all federal, state and local government web resources and services.